カタログに戻る

STARLINK-32462

運用中通信VLEO
NORAD 62129·PAYLOAD·🇺🇸 United States

打ち上げ Nov 27, 2024 から Cape Canaveral Space Force Station

Loading…

次のパス (今後24時間)

TLE

最新Source: CelesTrak SupGP

元期: Sep 15, 2026, 02:01 UTC

1 62129C 24222R   26258.08451389  .00022642  00000+0  82025-3 0  2586
2 62129  43.0008 143.2603 0001316 278.4975  54.4219 15.27560812    12

AllMySatでSTARLINK-32462をリアルタイム追跡

Download on the App Store